Flag for Germany Weather past 2 weeks in Andernach, Rhineland-Palatinate, Germany

Now
45 °F

Broken clouds.


Feels Like: 37 °F
Forecast: 34 / 44 °F
Wind: 20 mph from Southwest

Location: Buechel

Current Time: Mar 3, 2015 at 4:17:09 PM

Latest Report: Mar 3, 2015 at 3:20 PM


Visibility: N/A

Pressure: 30.01 "Hg

Humidity: 53%

Dew point: 28 °F

Location of AndernachLocation

Historic Weather in Andernach — Graph

°F

Andernach temperature yesterday

Maximum temperature yesterday: 43 °F (at 12:20 AM)
Minimum temperature yesterday: 34 °F (at 7:20 AM)
Average temperature yesterday: 38 °F

Past Weeks' High & Low Weather Summary

 TemperatureHumidityPressure
High46 °F (Mar 1, 1:20 PM)100% (Feb 17, 9:20 AM)30.69 "Hg (Feb 17, 9:20 AM)
Low27 °F (Feb 19, 1:20 AM)46% (Mar 2, 2:20 PM)29.39 "Hg (Feb 21, 4:20 AM)
Average35 °F89%29.95 "Hg
* Reported Feb 16 2:20 PM — Mar 3 2:20 PM, Andernach, Weather by CustomWeather, © 2015

Note: Actual official high and low records may vary slightly from our data, if they occured in-between our weather recording intervals... More about our weather records

Advertising

Andernach weather history for previous 24 hours

 ConditionsComfort  
Time TempWeatherWind HumidityBarometerVisibility
2:20 PM
Tue, Mar 3
43 °FScattered clouds.20 mph61%30.01 "HgN/A
1:20 PM43 °FScattered clouds.18 mph61%30.04 "HgN/A
12:20 PM41 °FScattered clouds.15 mph61%30.07 "HgN/A
11:20 AM37 °FScattered clouds.15 mph70%30.07 "HgN/A
10:20 AM36 °FPassing clouds.13 mph81%30.09 "HgN/A
9:20 AM32 °FScattered clouds.10 mph87%30.09 "HgN/A
8:20 AM30 °FPassing clouds.12 mph93%30.09 "HgN/A
7:20 AM30 °FScattered clouds.10 mph93%30.07 "HgN/A
6:51 AM30 °FPartly cloudy.10 mph93%30.07 "HgN/A
6:20 AM32 °FPassing clouds.10 mph87%30.07 "HgN/A
5:20 AM32 °FPartly cloudy.10 mph87%30.07 "HgN/A
4:52 AM30 °FPassing clouds.12 mph86%30.07 "HgN/A
4:20 AM30 °FPartly cloudy.10 mph86%30.07 "HgN/A
3:20 AM30 °FChilly.10 mph86%30.07 "HgN/A
2:20 AM30 °FChilly.9 mph86%30.07 "HgN/A
1:20 AM32 °FChilly.8 mph80%30.04 "HgN/A
12:20 AM34 °FChilly.12 mph75%30.01 "HgN/A
11:20 PM
Mon, Mar 2
34 °FChilly.13 mph75%30.01 "HgN/A
10:20 PM36 °FChilly.15 mph65%29.98 "HgN/A
9:20 PM36 °FChilly.12 mph65%29.95 "HgN/A
8:20 PM36 °FChilly.13 mph70%29.89 "HgN/A
7:20 PM34 °FChilly.13 mph81%29.86 "HgN/A
6:20 PM34 °FChilly.22 mph75%29.83 "Hg1 mi
5:20 PM37 °FSnow showers. Partly sunny.15 mph81%29.80 "Hg1 mi
4:20 PM34 °FScattered clouds.9 mph100%29.74 "HgN/A
4:04 PM34 °FThunderstorms. Fog.16 mph87%29.74 "Hg1 mi
Weather by CustomWeather, © 2015

See weather overviewHow to use our weather pages